{"data":{"norad_id":63635,"epoch":"2026-05-24T21:26:01.254048Z","epoch_age_seconds":84007,"freshness":"FRESH","line1":"1 63635U 25083B   26144.89307007  .00028751  00000+0  10496-2 0  9996","line2":"2 63635  42.9994 294.6512 0001815 280.0820  79.9826 15.27601072 61724","mean_motion":15.27601072,"eccentricity":0.0001815,"inclination_deg":42.9994,"raan_deg":294.6512,"arg_perigee_deg":280.082,"mean_anomaly_deg":79.9826,"bstar":0.0010496,"rev_number":6172,"period_min":94.265448381408,"perigee_km":481.74070579192,"apogee_km":484.23129344078,"semimajor_km":6861.1229996164,"source":"CELESTRAK","updated_at":"2026-05-25T13:38:20.051918Z"}}